EW1836 Weather Reports


time (UTC)temp
C
wind
direction
speed
KPH
gust
KPH
rain 1hr
cm
rain 24hr
cm
rain mn
cm
humidity
%
barometer
mb
20260906113014 21 96 0.0 0.0 0.00 0.00 0.00 92 1012.9
20260906111513 21 96 0.0 0.0 0.00 0.00 0.00 91 1012.7
20260906110012 21 96 0.0 0.0 0.00 0.00 0.00 91 1012.7
20260906104511 21 96 0.0 0.0 0.00 0.00 0.00 91 1012.8
20260906103014 21 96 0.0 0.0 0.00 0.00 0.00 91 1012.7
20260906101510 21 96 0.0 0.0 0.00 0.00 0.00 90 1012.6
20260906100014 21 96 0.0 0.0 0.00 0.00 0.00 90 1012.6
20260906094507 21 96 0.0 0.0 0.00 0.00 0.00 90 1012.6
20260906093007 21 96 0.0 0.0 0.00 0.00 0.00 90 1012.5
20260906091505 21 96 0.0 0.0 0.00 0.00 0.00 90 1012.3
20260906090005 21 96 0.0 0.0 0.00 0.00 0.00 90 1012.2
20260906084509 21 96 0.0 0.0 0.00 0.00 0.00 90 1012.1
20260906083003 21 96 0.0 0.0 0.00 0.00 0.00 90 1012.1
20260906081502 21 96 0.0 0.0 0.00 0.00 0.00 90 1012.1
20260906080002 21 96 0.0 0.0 0.00 0.00 0.00 90 1012.3
20260906074600 21 96 0.0 0.0 0.00 0.00 0.00 89 1012.2
20260906073059 21 96 0.0 0.0 0.00 0.00 0.00 90 1012.2
20260906071558 21 96 0.0 0.0 0.00 0.00 0.00 89 1012.1
20260906070057 22 96 0.0 0.0 0.00 0.00 0.00 89 1012.1
20260906064555 22 96 0.0 0.0 0.00 0.00 0.00 88 1012.2
20260906063053 22 96 0.0 0.0 0.00 0.00 0.00 89 1012.2
20260906061553 22 96 0.0 0.0 0.00 0.00 0.00 88 1012.4
20260906060109 22 96 0.0 0.0 0.00 0.00 0.00 88 1012.5
20260906054555 22 96 0.0 0.0 0.00 0.00 0.00 88 1012.5
20260906053047 22 96 0.0 0.0 0.00 0.00 0.00 87 1012.7
20260906051545 22 96 0.0 0.0 0.00 0.00 0.00 87 1012.9
20260906050042 22 96 0.0 0.0 0.00 0.00 0.00 86 1013.0
20260906044538 23 96 0.0 0.0 0.00 0.00 0.00 86 1013.2
20260906043038 23 96 0.0 0.0 0.00 0.00 0.00 85 1013.0
20260906041538 23 96 0.0 0.0 0.00 0.00 0.00 84 1012.9
20260906040037 23 96 0.0 0.0 0.00 0.00 0.00 84 1013.0
20260906034552 24 96 0.0 0.0 0.00 0.00 0.00 83 1013.1
20260906033039 24 96 0.0 0.0 0.00 0.00 0.00 83 1013.2
20260906031536 25 96 0.0 0.0 0.00 0.00 0.00 84 1013.4
20260906030036 25 96 0.0 0.0 0.00 0.00 0.00 85 1013.4
20260906024536 25 96 0.0 0.0 0.00 0.00 0.00 85 1013.1
20260906023033 25 96 0.0 0.0 0.00 0.00 0.00 85 1013.2
20260906021539 25 96 0.0 0.0 0.00 0.00 0.00 85 1013.4
20260906020031 26 96 0.0 0.0 0.00 0.00 0.00 84 1013.4
20260906014530 26 97 0.0 0.0 0.00 0.00 0.00 83 1013.3
20260906013029 26 97 0.0 0.0 0.00 0.00 0.00 82 1012.5
20260906011529 27 97 0.0 0.0 0.00 0.00 0.00 81 1012.5
20260906010028 27 97 0.0 0.0 0.00 0.00 0.00 80 1012.6
20260906004525 27 98 0.0 1.6 0.00 0.00 0.00 78 1012.1
20260906003025 28 97 0.0 0.0 0.00 0.00 0.00 77 1011.6
20260906001541 28 58 0.0 4.8 0.00 0.00 0.00 77 1011.1
20260906000024 28 32 0.0 6.4 0.00 0.00 0.00 75 1010.9
20260905234521 29 273 0.0 0.0 0.00 0.00 0.00 81 1011.3
20260905233023 30 273 0.0 0.0 0.00 0.00 0.00 79 1010.7
20260905231523 30 273 0.0 0.0 0.00 0.00 0.00 77 1010.7
20260905230022 31 273 0.0 0.0 0.00 0.00 0.00 75 1010.6
20260905224521 31 273 0.0 0.0 0.00 0.00 0.00 72 1010.8
20260905223030 32 273 0.0 0.0 0.00 0.00 0.00 69 1010.7
20260905221520 33 273 0.0 0.0 0.00 0.00 0.00 67 1010.7
20260905220015 34 273 0.0 0.0 0.00 0.00 0.00 63 1010.8
20260905214515 35 244 0.0 0.0 0.00 0.00 0.00 60 1010.6
20260905213013 35 244 0.0 0.0 0.00 0.00 0.00 59 1010.7
20260905211512 35 246 0.0 0.0 0.00 0.00 0.00 57 1010.8
20260905210010 34 246 0.0 0.0 0.00 0.00 0.00 65 1010.9
20260905204509 33 246 0.0 3.2 0.00 0.00 0.00 58 1011.1
20260905203007 33 172 0.0 0.0 0.00 0.00 0.00 63 1011.2
20260905201505 33 172 0.0 3.2 0.00 0.00 0.00 65 1011.3
20260905200004 33 201 0.0 0.0 0.00 0.00 0.00 67 1011.7
20260905194502 35 201 0.0 0.0 0.00 0.00 0.00 62 1012.0
20260905193004 35 201 0.0 4.8 0.00 0.00 0.00 55 1011.9
20260905191600 36 355 0.0 3.2 0.00 0.00 0.00 59 1011.9
20260905190057 36 355 0.0 1.6 0.00 0.00 0.00 61 1012.3
20260905184601 36 355 0.0 3.2 0.00 0.00 0.00 54 1012.6
20260905183052 36 355 0.0 4.8 0.00 0.00 0.00 54 1012.9
20260905181550 35 355 0.0 1.6 0.00 0.00 0.00 58 1012.9
20260905180048 35 355 1.6 6.4 0.00 0.00 0.00 55 1013.1
20260905174542 35 234 0.0 8.0 0.00 0.00 0.00 60 1013.3
20260905173046 34 296 0.0 8.0 0.00 0.00 0.00 62 1013.5
20260905171538 33 335 1.6 6.4 0.00 0.00 0.00 64 1013.8
20260905170034 32 323 0.0 6.4 0.00 0.00 0.00 63 1014.0
20260905164529 32 137 0.0 4.8 0.00 0.00 0.00 69 1014.2
20260905163023 31 346 1.6 6.4 0.00 0.00 0.00 70 1014.3
20260905161521 30 280 0.0 6.4 0.00 0.00 0.00 80 1014.4
20260905160018 30 348 1.6 8.0 0.00 0.00 0.00 74 1014.5
20260905154515 29 19 0.0 0.0 0.00 0.00 0.00 80 1014.6
20260905153024 28 19 0.0 0.0 0.00 0.00 0.00 82 1014.7
20260905151508 27 27 0.0 1.6 0.00 0.00 0.00 85 1014.9
20260905150004 26 31 0.0 6.4 0.00 0.00 0.00 91 1014.8
20260905144600 25 294 0.0 0.0 0.00 0.00 0.00 93 1014.9
20260905143056 24 288 0.0 1.6 0.00 0.00 0.00 94 1015.0
20260905141552 23 288 0.0 4.8 0.00 0.00 0.00 95 1015.0
20260905140050 23 16 0.0 0.0 0.00 0.00 0.00 95 1015.1
20260905134548 22 16 0.0 0.0 0.00 0.00 0.00 95 1015.2
20260905133046 22 16 0.0 0.0 0.00 0.00 0.00 95 1015.3
20260905131555 21 16 0.0 0.0 0.00 0.00 0.00 94 1015.4
20260905130044 21 16 0.0 0.0 0.00 0.00 0.00 93 1015.5
20260905124542 21 16 0.0 0.0 0.00 0.00 0.00 93 1015.5
20260905123102 20 16 0.0 0.0 0.00 0.00 0.00 92 1015.5
20260905121538 20 16 0.0 0.0 0.00 0.00 0.00 92 1015.4
20260905120037 20 16 0.0 0.0 0.00 0.00 0.00 92 1015.3
20260905114538 20 16 0.0 0.0 0.00 0.00 0.00 92 1015.2